Location: Dötzum
(52.0808°N, 9.8063°E)
Time: 05:51:41
(UTC+00:00)

Cosmos 1975 Rocket - Pass Details

Date: 27 May 2022
Orbit: 603 x 633 km, 82.5° (Epoch: 26 June)

Event Time Altitude Azimuth Distance (km) Brightness Sun altitude
Exits shadow 00:56:42 21° 198° (SSW) 1,396 4.2 -13.5°
Maximum altitude 00:59:35 75° 281° (W) 656 3.1 -13.4°
Drops below altitude 10° 01:04:06 10° 8° (N) 2,026 7.0 -13.1°
Sets 01:06:22 0° 10° (N) 2,942 8.2 -12.9°
